Tracking 35274 objects as of 12-Sep-2026
HD Live streaming from Space Station
objects crossing your sky now

SL-3 R/B


SL-3 R/B is no longer on orbit


NORAD ID: 3011
Int'l Code: 1967-102B
Launch date: October 24, 1967
Source: Commonwealth of Independent States (former USSR) (CIS)
Launch site: PLESETSK MISSILE AND SPACE COMPLEX (PKMTR)
Decay date: 1991-12-19

Note: This is a ROCKET BODY
Your satellite tracking list
Your tracking list is empty




NASA's NSSDC Master Catalog

Two Line Element Set (TLE):
1 03011U 67102  B 91353.03622050  .27833579 -89000-5 +15801-3 0  9995
2 03011 081.1248 135.8826 0007427 233.8340 127.1583 16.54942280321900
Source of the keplerian elements: AFSPC